sat.trackr.live / text

‹ back to catalog

STARLINK-3940

NORAD 52540 · 2022-051H

PAYLOAD ACTIVE UNKNOWN

§ Identity

Operator
Country
US
Launch date
2022-05-13
Launch site
AFWTR
Launch vehicle
Mass (kg)
RCS (m²)

Purposes: comms

External: N2YO · Heavens-Above · Gunter

§ Orbital elements

Epoch: 2026-05-24T23:55:03.963360Z

Period
95.44 min
Inclination
53.2141°
Eccentricity
0.0001057
Mean motion
15.08838980 rev/d
Perigee alt
539.0 km
Apogee alt
540.5 km
Semi-major
6,917.9 km
B*
2.8309e-5
RAAN
146.6049°
Arg perigee
71.7001°
Mean anomaly
288.4106°
Rev number
22,296

§ Raw data

STARLINK-39401 52540U 22051H   26144.99657365  .00000163  00000+0  28309-4 0  99982 52540  53.2141 146.6049 0001057  71.7001 288.4106 15.08838980222963

JSON: /api/v1/satellites/52540 · /tle

For live sub-satellite position, see the globe view (requires WebGL).

§ Visibility from observer

Set your observer location to see the next 7 days of passes ≥ 10°. The values pass through the URL so the page stays shareable.

No JS? Fill the form by hand. The geolocation button needs JavaScript.